Time,TemperatureF,DewpointF,PressureIn,WindDirection,WindDirectionDegrees,WindSpeedMPH,WindSpeedGustMPH,Humidity,HourlyPrecipIn,Conditions,Clouds,dailyrainin,SoftwareType,DateUTC
2013-02-15 00:08:00,35.1,34.6,29.90,SE,135,0.0,-999.0,98,-99.99,,,0.00,Acu-Link.com,2013-02-15 05:08:00,
2013-02-15 00:23:00,34.9,34.4,29.90,SE,135,0.0,-999.0,98,-99.99,,,0.00,Acu-Link.com,2013-02-15 05:23:00,
2013-02-15 00:39:00,34.9,34.4,29.91,South,180,0.0,-999.0,98,-99.99,,,0.00,Acu-Link.com,2013-02-15 05:39:00,
2013-02-15 00:54:00,34.9,34.4,29.91,West,270,0.0,-999.0,98,-99.99,,,0.00,Acu-Link.com,2013-02-15 05:54:00,
2013-02-15 01:09:00,34.5,34.0,29.91,West,270,0.0,-999.0,98,-99.99,,,0.00,Acu-Link.com,2013-02-15 06:09:00,
2013-02-15 01:25:00,34.5,34.0,29.91,NW,315,0.0,-999.0,98,-99.99,,,0.00,Acu-Link.com,2013-02-15 06:25:00,
2013-02-15 01:40:00,34.5,34.0,29.91,WNW,292,0.0,-999.0,98,-99.99,,,0.00,Acu-Link.com,2013-02-15 06:40:00,
2013-02-15 01:55:00,34.3,33.8,29.91,ESE,112,0.0,-999.0,98,-99.99,,,0.00,Acu-Link.com,2013-02-15 06:55:00,
2013-02-15 02:10:00,34.0,33.5,29.90,ESE,112,0.0,-999.0,98,-99.99,,,0.00,Acu-Link.com,2013-02-15 07:10:00,
2013-02-15 02:26:00,33.6,33.1,29.90,ESE,112,0.0,-999.0,98,-99.99,,,0.00,Acu-Link.com,2013-02-15 07:26:00,
2013-02-15 02:41:00,33.1,32.6,29.90,ESE,112,0.0,-999.0,98,-99.99,,,0.00,Acu-Link.com,2013-02-15 07:41:00,
2013-02-15 02:56:00,32.7,32.2,29.89,ESE,112,0.0,-999.0,98,-99.99,,,0.00,Acu-Link.com,2013-02-15 07:56:00,
2013-02-15 03:12:00,32.5,32.0,29.89,ESE,112,0.0,-999.0,98,-99.99,,,0.00,Acu-Link.com,2013-02-15 08:12:00,
2013-02-15 03:27:00,32.4,31.9,29.89,ESE,112,0.0,-999.0,98,-99.99,,,0.00,Acu-Link.com,2013-02-15 08:27:00,
2013-02-15 03:43:00,32.2,31.7,29.89,ESE,112,0.0,-999.0,98,-99.99,,,0.00,Acu-Link.com,2013-02-15 08:43:00,
2013-02-15 03:58:00,32.0,31.5,29.89,ESE,112,0.0,-999.0,98,-99.99,,,0.00,Acu-Link.com,2013-02-15 08:58:00,
2013-02-15 04:17:00,32.0,31.5,29.89,ESE,112,0.0,-999.0,98,-99.99,,,0.00,Acu-Link.com,2013-02-15 09:17:00,
2013-02-15 04:32:00,31.6,31.1,29.90,ESE,112,0.0,-999.0,98,-99.99,,,0.00,Acu-Link.com,2013-02-15 09:32:00,
2013-02-15 04:48:00,31.5,31.0,29.89,ESE,112,0.0,-999.0,98,-99.99,,,0.00,Acu-Link.com,2013-02-15 09:48:00,
2013-02-15 05:03:00,31.5,31.0,29.90,ESE,112,0.0,-999.0,98,-99.99,,,0.00,Acu-Link.com,2013-02-15 10:03:00,
2013-02-15 05:18:00,31.3,30.8,29.90,ESE,112,0.0,-999.0,98,-99.99,,,0.00,Acu-Link.com,2013-02-15 10:18:00,
2013-02-15 05:33:00,31.1,30.6,29.89,ESE,112,0.0,-999.0,98,-99.99,,,0.00,Acu-Link.com,2013-02-15 10:33:00,
2013-02-15 05:49:00,31.1,30.6,29.89,ESE,112,0.0,-999.0,98,-99.99,,,0.00,Acu-Link.com,2013-02-15 10:49:00,
2013-02-15 06:04:00,30.7,30.2,29.89,ESE,112,0.0,-999.0,98,-99.99,,,0.00,Acu-Link.com,2013-02-15 11:04:00,
2013-02-15 06:19:00,30.7,30.2,29.90,ESE,112,0.0,-999.0,98,-99.99,,,0.00,Acu-Link.com,2013-02-15 11:19:00,
2013-02-15 06:34:00,30.6,30.1,29.90,WNW,292,0.0,-999.0,98,-99.99,,,0.00,Acu-Link.com,2013-02-15 11:34:00,
2013-02-15 06:49:00,30.6,30.1,29.90,WNW,292,0.0,-999.0,98,-99.99,,,0.00,Acu-Link.com,2013-02-15 11:49:00,
2013-02-15 07:05:00,30.6,30.1,29.90,WNW,292,0.0,-999.0,98,-99.99,,,0.00,Acu-Link.com,2013-02-15 12:05:00,
2013-02-15 07:20:00,30.4,29.9,29.91,WNW,292,0.0,-999.0,98,-99.99,,,0.00,Acu-Link.com,2013-02-15 12:20:00,
2013-02-15 07:35:00,30.6,30.1,29.91,WNW,292,0.0,-999.0,98,-99.99,,,0.00,Acu-Link.com,2013-02-15 12:35:00,
2013-02-15 07:50:00,31.1,30.6,29.91,WNW,292,0.0,-999.0,98,-99.99,,,0.00,Acu-Link.com,2013-02-15 12:50:00,
2013-02-15 08:06:00,31.8,31.3,29.91,WNW,292,0.0,-999.0,98,-99.99,,,0.00,Acu-Link.com,2013-02-15 13:06:00,
2013-02-15 08:21:00,33.1,32.6,29.92,WNW,292,0.0,-999.0,98,-99.99,,,0.00,Acu-Link.com,2013-02-15 13:21:00,
2013-02-15 08:36:00,35.6,35.1,29.92,South,180,0.0,-999.0,98,-99.99,,,0.00,Acu-Link.com,2013-02-15 13:36:00,
2013-02-15 08:52:00,38.5,38.0,29.92,ENE,67,0.0,-999.0,98,-99.99,,,0.00,Acu-Link.com,2013-02-15 13:52:00,
2013-02-15 09:07:00,40.5,40.0,29.93,West,270,1.1,-999.0,98,-99.99,,,0.00,Acu-Link.com,2013-02-15 14:07:00,
2013-02-15 09:22:00,45.3,42.0,29.93,NW,315,2.2,-999.0,88,-99.99,,,0.00,Acu-Link.com,2013-02-15 14:22:00,
2013-02-15 09:37:00,47.8,43.2,29.93,West,270,2.7,-999.0,84,-99.99,,,0.00,Acu-Link.com,2013-02-15 14:37:00,
2013-02-15 09:52:00,49.8,43.2,29.93,NW,315,2.2,-999.0,78,-99.99,,,0.00,Acu-Link.com,2013-02-15 14:52:00,
2013-02-15 10:08:00,51.4,44.1,29.93,SSW,202,1.7,-999.0,76,-99.99,,,0.00,Acu-Link.com,2013-02-15 15:08:00,
2013-02-15 10:23:00,51.8,44.1,29.92,ESE,112,1.7,-999.0,75,-99.99,,,0.00,Acu-Link.com,2013-02-15 15:23:00,
2013-02-15 10:39:00,53.8,44.2,29.92,SSW,202,1.7,-999.0,70,-99.99,,,0.00,Acu-Link.com,2013-02-15 15:39:00,
2013-02-15 10:54:00,55.0,45.4,29.92,WNW,292,1.7,-999.0,70,-99.99,,,0.00,Acu-Link.com,2013-02-15 15:54:00,
2013-02-15 11:09:00,56.7,43.4,29.91,West,270,2.7,-999.0,61,-99.99,,,0.00,Acu-Link.com,2013-02-15 16:09:00,
2013-02-15 11:24:00,57.6,43.4,29.91,South,180,3.7,-999.0,59,-99.99,,,0.00,Acu-Link.com,2013-02-15 16:24:00,
2013-02-15 11:40:00,58.6,41.0,29.91,ESE,112,0.0,-999.0,52,-99.99,,,0.00,Acu-Link.com,2013-02-15 16:40:00,
2013-02-15 11:55:00,59.2,42.6,29.90,SE,135,1.1,-999.0,54,-99.99,,,0.00,Acu-Link.com,2013-02-15 16:55:00,
2013-02-15 12:10:00,59.4,39.7,29.89,South,180,1.7,-999.0,48,-99.99,,,0.00,Acu-Link.com,2013-02-15 17:10:00,
2013-02-15 12:25:00,59.9,38.5,29.88,NNW,337,1.7,-999.0,45,-99.99,,,0.00,Acu-Link.com,2013-02-15 17:25:00,
2013-02-15 12:41:00,61.7,39.6,29.87,SSW,202,0.0,-999.0,44,-99.99,,,0.00,Acu-Link.com,2013-02-15 17:41:00,
2013-02-15 12:56:00,61.2,37.3,29.86,NW,315,0.0,-999.0,41,-99.99,,,0.00,Acu-Link.com,2013-02-15 17:56:00,
2013-02-15 13:11:00,61.3,38.0,29.86,NW,315,4.2,-999.0,42,-99.99,,,0.00,Acu-Link.com,2013-02-15 18:11:00,
2013-02-15 13:27:00,61.7,38.4,29.85,SW,225,0.0,-999.0,42,-99.99,,,0.00,Acu-Link.com,2013-02-15 18:27:00,
2013-02-15 13:42:00,62.2,38.8,29.84,ESE,112,2.2,-999.0,42,-99.99,,,0.00,Acu-Link.com,2013-02-15 18:42:00,
2013-02-15 13:57:00,62.1,38.7,29.84,WNW,292,0.0,-999.0,42,-99.99,,,0.00,Acu-Link.com,2013-02-15 18:57:00,
2013-02-15 14:13:00,61.0,37.1,29.83,West,270,1.7,-999.0,41,-99.99,,,0.00,Acu-Link.com,2013-02-15 19:13:00,
2013-02-15 14:28:00,62.6,38.6,29.81,WNW,292,2.2,-999.0,41,-99.99,,,0.00,Acu-Link.com,2013-02-15 19:28:00,
2013-02-15 14:43:00,61.2,37.9,29.80,North,0,2.2,-999.0,42,-99.99,,,0.00,Acu-Link.com,2013-02-15 19:43:00,
2013-02-15 14:59:00,61.2,38.5,29.79,NE,45,4.2,-999.0,43,-99.99,,,0.00,Acu-Link.com,2013-02-15 19:59:00,
2013-02-15 15:14:00,63.0,38.3,29.78,SSE,157,2.2,-999.0,40,-99.99,,,0.00,Acu-Link.com,2013-02-15 20:14:00,
2013-02-15 15:29:00,60.8,37.0,29.78,West,270,1.7,-999.0,41,-99.99,,,0.00,Acu-Link.com,2013-02-15 20:29:00,
2013-02-15 15:45:00,61.3,38.0,29.77,WNW,292,1.7,-999.0,42,-99.99,,,0.00,Acu-Link.com,2013-02-15 20:45:00,
2013-02-15 16:00:00,61.9,39.2,29.77,West,270,4.7,-999.0,43,-99.99,,,0.00,Acu-Link.com,2013-02-15 21:00:00,
2013-02-15 16:16:00,63.1,38.4,29.77,WNW,292,4.2,-999.0,40,-99.99,,,0.00,Acu-Link.com,2013-02-15 21:16:00,
2013-02-15 16:31:00,60.8,37.6,29.77,NW,315,1.7,-999.0,42,-99.99,,,0.00,Acu-Link.com,2013-02-15 21:31:00,
2013-02-15 16:46:00,60.6,37.4,29.76,WSW,247,4.2,-999.0,42,-99.99,,,0.00,Acu-Link.com,2013-02-15 21:46:00,
2013-02-15 17:02:00,60.4,37.8,29.76,WNW,292,2.7,-999.0,43,-99.99,,,0.00,Acu-Link.com,2013-02-15 22:02:00,
2013-02-15 17:17:00,59.2,38.4,29.76,South,180,2.7,-999.0,46,-99.99,,,0.00,Acu-Link.com,2013-02-15 22:17:00,
2013-02-15 17:32:00,57.6,38.1,29.76,ENE,67,1.1,-999.0,48,-99.99,,,0.00,Acu-Link.com,2013-02-15 22:32:00,
2013-02-15 17:47:00,55.9,39.0,29.76,South,180,0.0,-999.0,53,-99.99,,,0.00,Acu-Link.com,2013-02-15 22:47:00,
2013-02-15 18:03:00,53.6,39.2,29.76,SE,135,0.0,-999.0,58,-99.99,,,0.00,Acu-Link.com,2013-02-15 23:03:00,
2013-02-15 18:18:00,51.8,38.8,29.76,SE,135,0.0,-999.0,61,-99.99,,,0.00,Acu-Link.com,2013-02-15 23:18:00,
2013-02-15 18:33:00,50.0,38.3,29.75,ESE,112,0.0,-999.0,64,-99.99,,,0.00,Acu-Link.com,2013-02-15 23:33:00,
2013-02-15 18:49:00,48.9,38.8,29.76,SSE,157,0.0,-999.0,68,-99.99,,,0.00,Acu-Link.com,2013-02-15 23:49:00,
2013-02-15 19:04:00,48.0,38.7,29.76,SSE,157,0.0,-999.0,70,-99.99,,,0.00,Acu-Link.com,2013-02-16 00:04:00,
2013-02-15 19:19:00,46.9,38.0,29.77,SSE,157,0.0,-999.0,71,-99.99,,,0.00,Acu-Link.com,2013-02-16 00:19:00,
2013-02-15 19:35:00,46.0,37.8,29.77,ESE,112,0.0,-999.0,73,-99.99,,,0.00,Acu-Link.com,2013-02-16 00:35:00,
2013-02-15 19:50:00,45.3,38.9,29.77,ESE,112,0.0,-999.0,78,-99.99,,,0.00,Acu-Link.com,2013-02-16 00:50:00,
2013-02-15 20:20:00,44.8,38.4,29.77,ESE,112,0.0,-999.0,78,-99.99,,,0.00,Acu-Link.com,2013-02-16 01:20:00,
2013-02-15 20:35:00,44.2,38.4,29.78,SE,135,0.0,-999.0,80,-99.99,,,0.00,Acu-Link.com,2013-02-16 01:35:00,
2013-02-15 20:51:00,43.9,38.5,29.78,SE,135,0.0,-999.0,81,-99.99,,,0.00,Acu-Link.com,2013-02-16 01:51:00,
2013-02-15 21:06:00,43.7,38.3,29.78,ESE,112,0.0,-999.0,81,-99.99,,,0.00,Acu-Link.com,2013-02-16 02:06:00,
2013-02-15 21:21:00,43.2,38.1,29.78,ESE,112,0.0,-999.0,82,-99.99,,,0.00,Acu-Link.com,2013-02-16 02:21:00,
2013-02-15 21:37:00,42.6,37.8,29.78,SE,135,0.0,-999.0,83,-99.99,,,0.00,Acu-Link.com,2013-02-16 02:37:00,
2013-02-15 21:52:00,42.1,37.9,29.78,ESE,112,0.0,-999.0,85,-99.99,,,0.00,Acu-Link.com,2013-02-16 02:52:00,
2013-02-15 22:07:00,41.7,38.1,29.78,SE,135,0.0,-999.0,87,-99.99,,,0.00,Acu-Link.com,2013-02-16 03:07:00,
2013-02-15 22:23:00,41.4,38.1,29.77,ESE,112,0.0,-999.0,88,-99.99,,,0.00,Acu-Link.com,2013-02-16 03:23:00,
2013-02-15 22:38:00,41.0,37.7,29.78,SSE,157,0.0,-999.0,88,-99.99,,,0.00,Acu-Link.com,2013-02-16 03:38:00,
2013-02-15 22:53:00,41.2,37.9,29.78,East,90,0.0,-999.0,88,-99.99,,,0.00,Acu-Link.com,2013-02-16 03:53:00,
2013-02-15 23:08:00,44.8,38.7,29.80,NNE,22,1.1,-999.0,79,-99.99,,,0.00,Acu-Link.com,2013-02-16 04:08:00,
2013-02-15 23:24:00,44.8,39.3,29.80,WNW,292,0.0,-999.0,81,-99.99,,,0.00,Acu-Link.com,2013-02-16 04:24:00,
2013-02-15 23:39:00,44.6,39.5,29.80,NE,45,0.0,-999.0,82,-99.99,,,0.00,Acu-Link.com,2013-02-16 04:39:00,
2013-02-15 23:54:00,44.2,39.4,29.80,NNW,337,2.2,-999.0,83,-99.99,,,0.00,Acu-Link.com,2013-02-16 04:54:00,